Location: Mactaquac Provincial Park
(45.9573°N, 66.8897°W)
Time: 05:49:43
(UTC-03:00)

Cosmos 1867 - Visible Passes

Search period start: 31 August 2015 00:00
Search period end: 10 September 2015 00:00
Orbit: 775 x 801 km, 65.0° (Epoch: 30 August)

Date Brightness Start Highest point End Pass type
(mag) Time Alt. Az. Time Alt. Az. Time Alt. Az.
31 Aug 6.6 01:32:52 10° NNW 01:34:45 12° NNW 01:36:34 10° N visible
31 Aug 6.6 03:19:11 10° N 03:20:54 11° NNE 03:22:41 10° NNE visible
31 Aug 5.7 05:01:48 10° NNW 05:06:27 28° NE 05:11:08 10° E visible
31 Aug 3.7 21:28:27 10° S 21:33:37 48° ESE 21:38:53 10° NE visible
31 Aug 5.1 23:12:26 10° WSW 23:17:25 35° NW 23:22:25 10° NNE visible
01 Sep 6.6 01:00:16 10° NW 01:02:45 13° NNW 01:05:07 10° N visible
01 Sep 6.7 02:47:46 10° N 02:48:52 11° N 02:50:02 10° NNE visible
01 Sep 6.0 04:30:17 10° NNW 04:34:35 23° NNE 04:38:56 10° E visible
01 Sep 3.6 06:13:25 10° NW 06:18:56 88° WSW 06:24:25 10° SSE visible
01 Sep 4.1 20:57:12 10° S 21:02:05 36° ESE 21:07:04 10° NE visible
01 Sep 4.7 22:40:28 10° WSW 22:45:39 43° NW 22:50:53 10° NNE visible
02 Sep 6.5 00:27:45 10° NW 00:30:45 14° NNW 00:33:39 10° N visible
02 Sep 6.8 02:16:26 10° N 02:16:49 10° N 02:17:14 10° N visible
02 Sep 6.2 03:58:48 10° NNW 04:02:41 19° NNE 04:06:39 10° ENE visible
02 Sep 3.9 05:41:48 10° NNW 05:47:17 72° NE 05:52:45 10° SE visible
02 Sep 4.3 22:08:35 10° SW 22:13:55 55° NW 22:19:19 10° NNE visible
02 Sep 6.3 23:55:18 10° WNW 23:58:47 17° NNW 00:02:12 10° NNE visible
03 Sep 6.3 03:27:19 10° NNW 03:30:45 17° NNE 03:34:17 10° ENE visible
03 Sep 4.3 05:10:12 10° NNW 05:15:36 56° NE 05:20:59 10° SE visible
03 Sep 3.8 21:36:48 10° SW 21:42:14 71° NW 21:47:44 10° NNE visible
03 Sep 6.1 23:22:55 10° WNW 23:26:51 19° NNW 23:30:43 10° NNE visible
04 Sep 6.8 01:12:22 10° N 01:12:44 10° N 01:13:03 10° N visible
04 Sep 6.5 02:55:51 10° N 02:58:47 15° NNE 03:01:49 10° NE visible
04 Sep 4.8 04:38:38 10° NNW 04:43:53 44° NE 04:49:06 10° ESE visible
04 Sep 4.2 06:22:27 10° NW 06:27:26 36° WSW 06:32:19 10° S visible
04 Sep 3.6 21:05:08 10° SSW 21:10:35 89° SE 21:16:06 10° NE visible
04 Sep 5.9 22:50:38 10° W 22:54:57 23° NNW 22:59:13 10° NNE visible
05 Sep 6.8 00:39:33 10° NNW 00:40:40 11° N 00:41:45 10° N visible
05 Sep 6.6 02:24:24 10° N 02:26:48 13° NNE 02:29:18 10° NE visible
05 Sep 5.1 04:07:05 10° NNW 04:12:06 35° NE 04:17:07 10° ESE visible
05 Sep 3.8 05:50:39 10° NW 05:55:54 48° WSW 06:01:05 10° S visible
05 Sep 3.6 20:33:36 10° SSW 20:38:58 68° ESE 20:44:26 10° NE visible
05 Sep 5.6 22:18:26 10° W 22:23:05 27° NW 22:27:43 10° NNE visible
06 Sep 6.7 00:06:52 10° NNW 00:08:38 11° NNW 00:10:19 10° N visible
06 Sep 6.6 01:52:57 10° N 01:54:47 12° NNE 01:56:42 10° NE visible
06 Sep 5.5 03:35:34 10° NNW 03:40:17 29° NE 03:45:02 10° E visible
06 Sep 3.5 05:18:54 10° NW 05:24:20 64° WSW 05:29:43 10° SSE visible
06 Sep 5.3 21:46:20 10° WSW 21:51:15 33° NW 21:56:12 10° NNE visible
06 Sep 6.6 23:34:16 10° NW 23:36:37 12° NNW 23:38:52 10° N visible
07 Sep 6.7 01:21:31 10° N 01:22:46 11° N 01:24:04 10° NNE visible
07 Sep 5.7 03:04:04 10° NNW 03:08:26 24° NE 03:12:52 10° E visible
07 Sep 3.5 04:47:13 10° NW 04:52:44 83° WSW 04:58:12 10° SSE visible
07 Sep 4.9 21:14:19 10° WSW 21:19:29 41° NW 21:24:40 10° NNE visible
07 Sep 6.5 23:01:44 10° NW 23:04:37 14° NNW 23:07:25 10° N visible
08 Sep 6.7 00:50:08 10° N 00:50:43 10° N 00:51:19 10° NNE visible
08 Sep 6.0 02:32:34 10° NNW 02:36:33 20° NNE 02:40:36 10° ENE visible
08 Sep 3.7 04:15:36 10° NNW 04:21:06 76° NE 04:26:34 10° SE visible
08 Sep 4.8 06:00:23 10° WNW 06:04:10 19° WSW 06:07:46 10° SSW visible
08 Sep 4.5 20:42:25 10° SW 20:47:44 52° NW 20:53:06 10° NNE visible
08 Sep 6.4 22:29:16 10° WNW 22:32:39 16° NNW 22:35:57 10° NNE visible
09 Sep 6.1 02:01:05 10° NNW 02:04:37 17° NNE 02:08:14 10° ENE visible
09 Sep 4.0 03:43:59 10° NNW 03:49:25 59° NE 03:54:49 10° SE visible
09 Sep 4.5 05:28:15 10° WNW 05:32:42 25° WSW 05:37:01 10° SSW visible
09 Sep 6.2 21:56:52 10° WNW 22:00:42 19° NNW 22:04:28 10° NNE visible
